PROFILE

 METAR AND TAF INFORMATION
ADDS - METARS form results

(1018 UTC 15 May 2021)
http://aviationweather.gov/metar/data/
 
LFMN 151000Z 13004KT 9999 FEW021 SCT130 BKN230 17/10 Q1012 NOSIG
LFMN 150930Z 14007KT 9999 FEW021 BKN230 16/11 Q1012 NOSIG
TAF LFMN 150800Z 1509/1615 VRB02KT 9999 FEW020 SCT260 BECMG 1509/1510 09010KT BECMG 1511/1513 24020KT TEMPO 1513/1615 24025G35KT 

 AIRPORT MAP

 RUNWAY INFORMATION
Runway 04L Runway length 8995 ft Runway width 148 ft
Runway elevation 10 ft Runway displaced threshold 0 ft Runway heading 45
Runway 22R Runway length 8995 ft Runway width 148 ft
Runway elevation 10 ft Runway displaced threshold 575 ft Runway heading 225
Runway 04R Runway length 9712 ft Runway width 148 ft
Runway elevation 10 ft Runway displaced threshold 0 ft Runway heading 45
Runway 22L Runway length 9712 ft Runway width 148 ft
Runway elevation 12 ft Runway displaced threshold 0 ft Runway heading 225

 AIRPORT FREQUENCIES
Type A/D Name NICE APP Frequency 124.175 MHZ
Type ATIS Name NICE ATIS Frequency 129.6 MHZ
Type GND Name NICE GND Frequency 121.775 MHZ
Type TWR Name NICE TWR Frequency 118.7 MHZ

 AIRPORT NEAR NAVIGATION AIDS
Type VOR-DME Name Nice Cote D Azur Frequency 109650 KHZ
Type VOR-DME Name Cagnes Sur Mer Frequency 109200 KHZ
Type NDB Name Nice Frequency 399 KHZ
Type VOR-DME Name Nice Frequency 112400 KHZ